User: anonymous   Login
Location: Elk Forest
(39.5314°N, 75.8738°W)
Time: 02:41:26
(UTC-05:00)
Language:

Resurs 01 Rocket - Orbit

View from above orbital plane
View from above orbital plane
View from above satellite
View from above satellite

Ground track
Ground track

The orbit data is extracted from the following two-line orbital elements,

1 23343U 94074B   18017.74501647 -.00000013  00000-0  56535-5 0  9994
2 23343  98.1266  61.6370 0008230 103.0527  34.0129 14.76721740248498
Epoch (UTC): 17 January 2018 17:52:49
Eccentricity: 0.0008230
inclination: 98.1266°
perigee height: 634 km
apogee height: 645 km
right ascension of ascending node: 61.6370°
argument of perigee: 103.0527°
revolutions per day: 14.76721740
mean anomaly at epoch: 34.0129°
orbit number at epoch: 24849

The dashed part of the orbit path shows where the satellite is in the earth's shadow,  

DLR